Location: Auckland
(36.8670°S, 174.7670°E)
Time: 18:48:41
(UTC+12:00)

A-11 Canister half - Pass Details

Date: 21 July 2019
Orbit: 1526 x 1682 km, 47.3° (Epoch: 24 August)

Event Time Altitude Azimuth Distance (km) Brightness Sun altitude
Rises 15:41:51 0° 238° (WSW) 4,837 11.8 16.5°
Reaches altitude 10° 15:44:58 10° 240° (WSW) 3,868 11.4 16.1°
Maximum altitude 15:54:44 64° 319° (NW) 1,807 10.1 14.6°
Drops below altitude 10° 16:04:41 10° 37° (NE) 3,935 11.2 13.1°
Sets 16:07:53 0° 40° (NE) 4,924 11.6 12.6°
